Weather History for Effingham, IL

Change the Weather History Date:

Sunday, October 27, 2013

  Actual Average (KMTO) Record (KMTO)
Temperature  
Mean Temperature 43 °F 51 °F  
Max Temperature 58 °F 61 °F 79 °F (1950)
Min Temperature 28 °F 41 °F 26 °F (1957)
Degree Days  
Heating Degree Days 22 14  
Month to date heating degree days 275  
Since 1 July heating degree days 346  
Cooling Degree Days 0 0  
Month to date cooling degree days 15  
Year to date cooling degree days 1053  
Moisture  
Dew Point 27 °F    
Average Humidity 63    
Maximum Humidity 91    
Minimum Humidity 23    
Precipitation  
Precipitation 0.00 in 0.10 in 0.91 in (1953)
Month to date precipitation 2.50  
Year to date precipitation 31.47  
Sea Level Pressure  
Sea Level Pressure 30.09 in    
Wind  
Wind Speed 1 mph (WSW)    
Max Wind Speed 8 mph    
Max Gust Speed -    
Visibility 10 miles    
Events Snow    
T = Trace of Precipitation, MM = Missing Value Source: NWS Daily Summary

Daily Weather History Graph

Daily Weather History Graph

Search for Another Location

Airport:

Trip Planner

Search our weather history database for the weather conditions in past years. The results will help you decide how hot, cold, wet, or windy it might be!

Date:

Astronomy

Oct. 27, 2013 Rise Set
Actual Time 7:16 AM CDT 5:58 PM CDT
Civil Twilight 6:48 AM CDT 6:26 PM CDT
Nautical Twilight 6:17 AM CDT 6:57 PM CDT
Astronomical Twilight 5:46 AM CDT 7:28 PM CDT
Moon 12:16 AM CDT (10/27) 2:05 PM CDT (10/27)
Length of Visible Light 11h 37m
Length of Day
10h 42m
Last Quarter, 43% of the Moon is Illuminated
Oct 27
Last Quarter
Nov 3
New
Nov 9
First Quarter
Nov 17
Full
Nov 25
Last Quarter

Hourly Weather History & Observations

Time (CDT) Temp. Windchill Dew Point Humidity Pressure Visibility Wind Dir Wind Speed Gust Speed Precip Events Conditions
12:15 AM 35.4 °F - 26.6 °F 70% 30.11 in 10.0 mi Calm Calm - N/A   Clear
12:35 AM 34.3 °F - 26.6 °F 73% 30.11 in 10.0 mi Calm Calm - N/A   Clear
12:55 AM 34.0 °F - 27.1 °F 76% 30.10 in 10.0 mi Calm Calm - N/A   Clear
1:15 AM 32.4 °F - 27.1 °F 81% 30.10 in 10.0 mi Calm Calm - N/A   Clear
1:35 AM 32.9 °F - 27.3 °F 80% 30.10 in 10.0 mi Calm Calm - N/A   Clear
1:55 AM 32.4 °F - 27.1 °F 81% 30.10 in 10.0 mi Calm Calm - N/A   Clear
2:15 AM 32.0 °F - 26.6 °F 80% 30.10 in 10.0 mi Calm Calm - N/A   Clear
2:35 AM 31.8 °F - 27.3 °F 83% 30.10 in 10.0 mi Calm Calm - N/A   Clear
2:55 AM 31.5 °F - 27.1 °F 84% 30.09 in 10.0 mi Calm Calm - N/A   Clear
3:15 AM 30.6 °F - 27.0 °F 86% 30.09 in 10.0 mi Calm Calm - N/A   Clear
3:35 AM 30.6 °F - 27.1 °F 87% 30.09 in 10.0 mi Calm Calm - N/A   Clear
3:55 AM 30.9 °F - 28.0 °F 89% 30.09 in 10.0 mi Calm Calm - N/A   Clear
4:15 AM 31.1 °F - 27.0 °F 85% 30.09 in 10.0 mi Calm Calm - N/A   Clear
4:35 AM 31.3 °F - 27.7 °F 87% 30.10 in 10.0 mi Calm Calm - N/A   Clear
4:55 AM 31.1 °F - 27.7 °F 87% 30.10 in 10.0 mi Calm Calm - N/A   Clear
5:15 AM 30.6 °F - 27.1 °F 87% 30.10 in 10.0 mi Calm Calm - N/A   Clear
5:35 AM 30.2 °F - 27.1 °F 88% 30.10 in 10.0 mi Calm Calm - N/A   Clear
5:55 AM 29.7 °F - 26.6 °F 88% 30.10 in 10.0 mi Calm Calm - N/A   Clear
6:15 AM 29.8 °F - 27.5 °F 91% 30.10 in 10.0 mi Calm Calm - N/A   Clear
6:35 AM 29.3 °F - 26.6 °F 90% 30.10 in 10.0 mi Calm Calm - N/A   Clear
6:55 AM 29.3 °F - 26.6 °F 90% 30.11 in 10.0 mi Calm Calm - N/A   Clear
7:15 AM 28.4 °F - 25.9 °F 90% 30.11 in 10.0 mi Calm Calm - N/A   Clear
7:35 AM 28.9 °F - 26.4 °F 90% 30.11 in 10.0 mi Calm Calm - N/A   Clear
7:55 AM 29.8 °F - 27.0 °F 89% 30.12 in 10.0 mi Calm Calm - N/A   Clear
8:15 AM 31.6 °F - 28.4 °F 88% 30.13 in 10.0 mi Calm Calm - N/A   Clear
8:35 AM 33.4 °F - 29.7 °F 86% 30.13 in 10.0 mi Calm Calm - N/A   Unknown
8:55 AM 36.5 °F - 30.7 °F 80% 30.13 in 10.0 mi Calm Calm - N/A   Clear
9:15 AM 39.6 °F - 31.5 °F 73% 30.13 in 10.0 mi Calm Calm - N/A   Clear
9:35 AM 42.1 °F - 30.7 °F 64% 30.13 in 10.0 mi Calm Calm - N/A   Clear
9:55 AM 45.0 °F - 31.6 °F 60% 30.13 in 10.0 mi Calm Calm - N/A   Clear
10:15 AM 47.1 °F - 31.3 °F 54% 30.13 in 10.0 mi Calm Calm - N/A   Clear
10:35 AM 49.5 °F - 30.4 °F 48% 30.14 in 10.0 mi WSW 3.5 mph - N/A   Clear
10:55 AM 50.9 °F - 28.4 °F 42% 30.13 in 10.0 mi WSW 4.6 mph - N/A   Clear
11:15 AM 52.7 °F - 25.7 °F 35% 30.13 in 10.0 mi WSW 4.6 mph - N/A   Clear
11:35 AM 52.9 °F - 24.1 °F 33% 30.13 in 10.0 mi Calm Calm - N/A   Clear
11:55 AM 54.0 °F - 24.1 °F 31% 30.13 in 10.0 mi West 4.6 mph - N/A   Clear
12:15 PM 54.5 °F - 25.2 °F 32% 30.12 in 10.0 mi WSW 6.9 mph - N/A   Clear
12:35 PM 54.5 °F - 24.1 °F 31% 30.10 in 10.0 mi WSW 3.5 mph - N/A   Clear
12:55 PM 55.8 °F - 22.3 °F 27% 30.09 in 10.0 mi NNW 4.6 mph - N/A   Clear
1:15 PM 56.1 °F - 23.0 °F 28% 30.08 in 10.0 mi WNW 3.5 mph - N/A   Clear
1:35 PM 57.0 °F - 21.7 °F 26% 30.08 in 10.0 mi WNW 8.1 mph - N/A   Clear
1:55 PM 56.8 °F - 21.6 °F 25% 30.07 in 10.0 mi Calm Calm - N/A   Clear
2:15 PM 57.6 °F - 22.8 °F 26% 30.06 in 10.0 mi SW 5.8 mph - N/A   Clear
2:35 PM 57.9 °F - 22.3 °F 25% 30.06 in 10.0 mi SW 4.6 mph - N/A   Clear
2:55 PM 57.4 °F - 21.0 °F 24% 30.05 in 10.0 mi South 4.6 mph - N/A   Clear
3:15 PM 58.3 °F - 21.2 °F 24% 30.05 in 10.0 mi WNW 3.5 mph - N/A   Clear
3:35 PM 58.1 °F - 20.3 °F 23% 30.05 in 10.0 mi West 4.6 mph - N/A   Clear
3:55 PM 58.3 °F - 21.9 °F 25% 30.05 in 10.0 mi SW 4.6 mph - N/A   Clear
4:15 PM 57.9 °F - 21.9 °F 25% 30.04 in 10.0 mi SSW 3.5 mph - N/A   Clear
4:35 PM 57.7 °F - 22.6 °F 26% 30.04 in 10.0 mi SSW 5.8 mph - N/A   Clear
4:55 PM 56.8 °F - 22.3 °F 26% 30.04 in 10.0 mi SW 4.6 mph - N/A   Clear
5:35 PM 54.0 °F - 24.3 °F 32% 30.04 in 10.0 mi SSW 3.5 mph - N/A   Clear
5:55 PM 51.4 °F - 25.5 °F 37% 30.05 in 10.0 mi Calm Calm - N/A   Clear
6:15 PM 46.8 °F - 27.5 °F 47% 30.05 in 10.0 mi Calm Calm - N/A   Clear
6:35 PM 45.5 °F - 28.6 °F 52% 30.05 in 10.0 mi Calm Calm - N/A   Clear
6:55 PM 43.9 °F - 28.4 °F 55% 30.05 in 10.0 mi Calm Calm - N/A   Clear
7:15 PM 42.3 °F - 29.3 °F 60% 30.05 in 10.0 mi Calm Calm - N/A   Clear
7:35 PM 40.8 °F - 29.8 °F 65% 30.05 in 7.0 mi Calm Calm - N/A   Clear
7:55 PM 40.1 °F - 29.7 °F 66% 30.05 in 10.0 mi Calm Calm - N/A   Clear
8:15 PM 38.3 °F 35.9 °F 29.3 °F 70% 30.05 in 10.0 mi ESE 3.5 mph - N/A   Clear
8:35 PM 37.4 °F - 29.3 °F 73% 30.05 in 10.0 mi Calm Calm - N/A   Clear
8:55 PM 37.0 °F - 29.5 °F 74% 30.06 in 7.0 mi Calm Calm - N/A   Clear
9:15 PM 37.0 °F - 30.4 °F 77% 30.07 in 10.0 mi Calm Calm - N/A   Clear
9:35 PM 35.6 °F - 30.0 °F 80% 30.07 in 5.0 mi Calm Calm - N/A   Haze
9:55 PM 35.6 °F - 29.5 °F 78% 30.07 in 10.0 mi Calm Calm - N/A Snow Light Snow
10:15 PM 35.1 °F - 29.1 °F 79% 30.07 in 10.0 mi Calm Calm - N/A   Clear
10:35 PM 34.7 °F - 29.8 °F 82% 30.07 in 10.0 mi Calm Calm - N/A   Clear
10:55 PM 33.6 °F - 29.3 °F 84% 30.08 in 10.0 mi Calm Calm - N/A   Clear
11:15 PM 33.6 °F - 30.0 °F 87% 30.08 in 10.0 mi Calm Calm - N/A   Clear
11:35 PM 34.0 °F - 30.4 °F 87% 30.08 in 10.0 mi Calm Calm - N/A   Clear
11:55 PM 33.1 °F - 30.2 °F 89% 30.08 in 10.0 mi Calm Calm - N/A   Clear